星链-30214 (STARLINK-30214 )

导读

STARLINK-30214是美国SpaceX星链互联网卫星星座的一员,于2023年7月20日发射升空,星链计划旨在为全球提供覆盖偏远地区、信号稳定的低轨卫星互联网服务,该卫星入轨后补充了星座网络容量,进一步推动星链完成全球组网部署,也助力美国商业航天产业发展。

基本信息
目录编号:
57411
目录名称:
STARLINK-30214
国际标识:
2023-102H
轨道中心:
EARTH
卫星名称:
星链-30214
卫星全名:
星链-30214 (STARLINK-30214 )
卫星状态:
在轨 (已飞行1064 天)
发射日期:
2023-07-20 UTC
国别 :
美国 (US)
星等 :
--
轨道信息
数据来源 国际轨道数据
星历时间: 2026-06-18T09:44:09+0800
11小时前
查看轨道信息
半长轴: 6861.184km
偏心率: 0.000129
轨道倾角: 43.002°
近地点辐角 264.677°
升交点赤经 41.551°
平近点角 95.393°
近地点: 482.161km
远地点: 483.933km
周期: 94.267分钟
每日圈数: 15.275807
详细信息
固有亮度:
5
最大亮度:
0.3
卫星平台:
Starlink v2.0 mini
覆盖范围:
全球
运营商:
太空探索技术公司
运营商所在国:
美国
制造商(研发单位):
太空探索技术公司
制造商所在国:
美国
使用方式:
暂无
卫星简介
星链(Starlink)计划是由太空探索技术公司(SpaceX)提出的一个巨型低轨卫星互联网星座项目,计划在2019年至2024年间在太空搭建由约1.2万颗卫星组成的“星链”网络,其中1584颗将部署在地球上空550千米处的近地轨道,并从2020年开始工作。该卫星仍在工作。
2D轨道图
3D轨道图
轨道高度分析图
轨道倾角分析图
轨道综合分析图
查看轨道综合分析图